Location: Haieshausen
(51.8387°N, 9.9720°E)
Time: 03:57:13
(UTC+00:00)

Cosmos 1378 Rocket - Pass Details

Date: 14 July 2020
Orbit: 602 x 626 km, 82.5° (Epoch: 10 August)

Event Time Altitude Azimuth Distance (km) Brightness Sun altitude
Rises 02:15:00 0° 347° (NNW) 2,900 7.6 -7.8°
Reaches altitude 10° 02:17:14 10° 345° (NNW) 1,994 6.7 -7.6°
Maximum altitude 02:21:37 68° 263° (W) 673 3.6 -7.1°
Drops below altitude 10° 02:26:00 10° 181° (S) 1,991 5.7 -6.7°
Sets 02:28:14 0° 179° (S) 2,895 6.6 -6.5°
